| time (UTC) | temp C | wind direction | speed KPH | gust KPH | rain 1hr cm | rain 24hr cm | rain mn cm | humidity % | barometer mb |
| 20260508185508 | 17 | 199 | 3.2 | 9.7 | 0.00 | 0.00 | 0.00 | 58 | 1009.5 |
| 20260508185006 | 18 | 254 | 3.2 | 12.9 | 0.00 | 0.00 | 0.00 | 55 | 1009.5 |
| 20260508184504 | 18 | 261 | 1.6 | 3.2 | 0.00 | 0.00 | 0.00 | 58 | 1009.6 |
| 20260508184000 | 19 | 187 | 1.6 | 4.8 | 0.00 | 0.00 | 0.00 | 56 | 1009.3 |
| 20260508183456 | 19 | 282 | 0.0 | 3.2 | 0.00 | 0.00 | 0.00 | 63 | 1009.3 |
| 20260508182951 | 18 | 336 | 3.2 | 11.3 | 0.00 | 0.00 | 0.00 | 57 | 1009.2 |
| 20260508182449 | 18 | 338 | 1.6 | 11.3 | 0.00 | 0.00 | 0.00 | 60 | 1009.4 |
| 20260508181944 | 18 | 344 | 1.6 | 4.8 | 0.00 | 0.00 | 0.00 | 57 | 1009.7 |
| 20260508181440 | 18 | 356 | 3.2 | 11.3 | 0.00 | 0.00 | 0.00 | 58 | 1009.8 |
| 20260508180938 | 18 | 293 | 1.6 | 3.2 | 0.00 | 0.00 | 0.00 | 56 | 1009.9 |
| 20260508180435 | 18 | 315 | 0.0 | 4.8 | 0.00 | 0.00 | 0.00 | 58 | 1010.1 |
| 20260508175931 | 17 | 308 | 3.2 | 4.8 | 0.00 | 0.00 | 0.00 | 59 | 1010.1 |
| 20260508175427 | 17 | 354 | 0.0 | 1.6 | 0.00 | 0.00 | 0.00 | 61 | 1010.4 |
| 20260508174926 | 17 | 331 | 0.0 | 1.6 | 0.00 | 0.00 | 0.00 | 59 | 1010.5 |
| 20260508174423 | 17 | 344 | 1.6 | 1.6 | 0.00 | 0.00 | 0.00 | 61 | 1010.4 |
| 20260508173919 | 17 | 210 | 3.2 | 4.8 | 0.00 | 0.00 | 0.00 | 60 | 1010.7 |
| 20260508173417 | 17 | 287 | 1.6 | 4.8 | 0.00 | 0.00 | 0.00 | 59 | 1011.1 |
| 20260508172912 | 17 | 199 | 3.2 | 8.0 | 0.00 | 0.00 | 0.00 | 61 | 1010.9 |
| 20260508172410 | 16 | 0 | 1.6 | 1.6 | 0.00 | 0.00 | 0.00 | 61 | 1010.9 |
| 20260508171906 | 16 | 0 | 1.6 | 1.6 | 0.00 | 0.00 | 0.00 | 61 | 1011.1 |
| 20260508171402 | 16 | 0 | 1.6 | 1.6 | 0.00 | 0.00 | 0.00 | 61 | 1011.3 |
| 20260508170859 | 16 | 322 | 0.0 | 1.6 | 0.00 | 0.00 | 0.00 | 59 | 1011.3 |
| 20260508170357 | 16 | 354 | 1.6 | 1.6 | 0.00 | 0.00 | 0.00 | 61 | 1011.5 |
| 20260508165853 | 16 | 330 | 0.0 | 1.6 | 0.00 | 0.00 | 0.00 | 61 | 1011.5 |
| 20260508165351 | 16 | 336 | 0.0 | 1.6 | 0.00 | 0.00 | 0.00 | 61 | 1011.7 |
| 20260508164846 | 16 | 342 | 0.0 | 3.2 | 0.00 | 0.00 | 0.00 | 59 | 1011.8 |
| 20260508164344 | 16 | 336 | 0.0 | 3.2 | 0.00 | 0.00 | 0.00 | 60 | 1011.9 |
| 20260508163841 | 16 | 313 | 1.6 | 4.8 | 0.00 | 0.00 | 0.00 | 59 | 1011.6 |
| 20260508163339 | 17 | 322 | 1.6 | 3.2 | 0.00 | 0.00 | 0.00 | 60 | 1011.7 |
| 20260508162835 | 16 | 287 | 1.6 | 3.2 | 0.00 | 0.00 | 0.00 | 61 | 1011.9 |
| 20260508162332 | 16 | 348 | 0.0 | 3.2 | 0.00 | 0.00 | 0.00 | 61 | 1011.7 |
| 20260508161829 | 16 | 347 | 0.0 | 1.6 | 0.00 | 0.00 | 0.00 | 61 | 1011.7 |
| 20260508161326 | 16 | 324 | 3.2 | 3.2 | 0.00 | 0.00 | 0.00 | 59 | 1011.8 |
| 20260508160823 | 16 | 341 | 0.0 | 1.6 | 0.00 | 0.00 | 0.00 | 61 | 1011.7 |
| 20260508160322 | 16 | 299 | 1.6 | 3.2 | 0.00 | 0.00 | 0.00 | 63 | 1012.1 |
| 20260508155818 | 15 | 320 | 1.6 | 3.2 | 0.00 | 0.00 | 0.00 | 60 | 1012.2 |
| 20260508155315 | 15 | 274 | 4.8 | 8.0 | 0.00 | 0.00 | 0.00 | 60 | 1012.4 |
| 20260508154812 | 15 | 317 | 3.2 | 3.2 | 0.00 | 0.00 | 0.00 | 58 | 1012.2 |
| 20260508154310 | 15 | 304 | 0.0 | 9.7 | 0.00 | 0.00 | 0.00 | 64 | 1012.3 |
| 20260508153806 | 15 | 299 | 4.8 | 4.8 | 0.00 | 0.00 | 0.00 | 62 | 1012.2 |
| 20260508153303 | 15 | 320 | 1.6 | 1.6 | 0.00 | 0.00 | 0.00 | 67 | 1012.0 |
| 20260508152759 | 14 | 193 | 3.2 | 4.8 | 0.00 | 0.00 | 0.00 | 64 | 1012.1 |
| 20260508152255 | 13 | 247 | 4.8 | 9.7 | 0.00 | 0.00 | 0.00 | 64 | 1012.0 |
| 20260508151751 | 13 | 340 | 0.0 | 1.6 | 0.00 | 0.00 | 0.00 | 72 | 1012.0 |
| 20260508151249 | 13 | 124 | 0.0 | 1.6 | 0.00 | 0.00 | 0.00 | 70 | 1012.1 |
| 20260508150745 | 13 | 324 | 0.0 | 1.6 | 0.00 | 0.00 | 0.00 | 72 | 1012.1 |
| 20260508150242 | 12 | 334 | 0.0 | 1.6 | 0.00 | 0.00 | 0.00 | 74 | 1012.2 |
| 20260508145738 | 12 | 345 | 1.6 | 1.6 | 0.00 | 0.00 | 0.00 | 72 | 1012.4 |
| 20260508145235 | 12 | 347 | 0.0 | 0.0 | 0.00 | 0.00 | 0.00 | 73 | 1012.3 |
| 20260508144731 | 12 | 0 | 0.0 | 1.6 | 0.00 | 0.00 | 0.00 | 74 | 1012.5 |
| 20260508144230 | 12 | 325 | 1.6 | 4.8 | 0.00 | 0.00 | 0.00 | 72 | 1012.5 |
| 20260508143727 | 11 | 320 | 0.0 | 3.2 | 0.00 | 0.00 | 0.00 | 74 | 1012.6 |
| 20260508143224 | 11 | 340 | 0.0 | 0.0 | 0.00 | 0.00 | 0.00 | 74 | 1012.4 |
| 20260508142720 | 11 | 341 | 0.0 | 0.0 | 0.00 | 0.00 | 0.00 | 74 | 1012.5 |
| 20260508142217 | 11 | 334 | 0.0 | 1.6 | 0.00 | 0.00 | 0.00 | 74 | 1012.3 |
| 20260508141713 | 11 | 332 | 1.6 | 1.6 | 0.00 | 0.00 | 0.00 | 73 | 1012.5 |
| 20260508141211 | 11 | 339 | 0.0 | 0.0 | 0.00 | 0.00 | 0.00 | 75 | 1012.6 |
| 20260508140708 | 11 | 344 | 0.0 | 0.0 | 0.00 | 0.00 | 0.00 | 75 | 1012.6 |
| 20260508140205 | 11 | 343 | 0.0 | 3.2 | 0.00 | 0.00 | 0.00 | 74 | 1012.6 |
| 20260508135701 | 11 | 352 | 1.6 | 1.6 | 0.00 | 0.00 | 0.00 | 75 | 1012.5 |
| 20260508135202 | 10 | 342 | 0.0 | 4.8 | 0.00 | 0.00 | 0.00 | 73 | 1012.4 |
| 20260508134658 | 10 | 316 | 0.0 | 0.0 | 0.00 | 0.00 | 0.00 | 75 | 1012.6 |
| 20260508134155 | 10 | 336 | 0.0 | 0.0 | 0.00 | 0.00 | 0.00 | 75 | 1012.6 |
| 20260508133652 | 10 | 343 | 0.0 | 1.6 | 0.00 | 0.00 | 0.00 | 72 | 1012.5 |
| 20260508133149 | 10 | 337 | 0.0 | 1.6 | 0.00 | 0.00 | 0.00 | 75 | 1012.6 |
| 20260508132647 | 10 | 348 | 3.2 | 4.8 | 0.00 | 0.00 | 0.00 | 73 | 1012.5 |
| 20260508132144 | 10 | 344 | 0.0 | 0.0 | 0.00 | 0.00 | 0.00 | 77 | 1012.3 |
| 20260508131640 | 10 | 353 | 0.0 | 1.6 | 0.00 | 0.00 | 0.00 | 77 | 1012.1 |
| 20260508131136 | 10 | 333 | 0.0 | 1.6 | 0.00 | 0.00 | 0.00 | 77 | 1012.3 |
| 20260508130633 | 10 | 326 | 0.0 | 1.6 | 0.00 | 0.00 | 0.00 | 77 | 1012.4 |
| 20260508130130 | 10 | 342 | 0.0 | 1.6 | 0.00 | 0.00 | 0.00 | 78 | 1012.3 |
| 20260508125625 | 10 | 327 | 0.0 | 0.0 | 0.00 | 0.00 | 0.00 | 78 | 1012.4 |
| 20260508125123 | 10 | 217 | 1.6 | 3.2 | 0.00 | 0.00 | 0.00 | 77 | 1012.3 |
| 20260508124621 | 10 | 338 | 0.0 | 1.6 | 0.00 | 0.00 | 0.00 | 78 | 1012.2 |
| 20260508124118 | 10 | 344 | 0.0 | 0.0 | 0.00 | 0.00 | 0.00 | 79 | 1012.4 |
| 20260508123616 | 10 | 338 | 0.0 | 0.0 | 0.00 | 0.00 | 0.00 | 79 | 1012.4 |
| 20260508123113 | 10 | 356 | 0.0 | 1.6 | 0.00 | 0.00 | 0.00 | 77 | 1012.4 |
| 20260508122609 | 10 | 343 | 0.0 | 0.0 | 0.00 | 0.00 | 0.00 | 80 | 1012.1 |
| 20260508122106 | 9 | 303 | 0.0 | 1.6 | 0.00 | 0.00 | 0.00 | 78 | 1012.0 |
| 20260508121605 | 9 | 323 | 1.6 | 3.2 | 0.00 | 0.00 | 0.00 | 78 | 1012.1 |
| 20260508121103 | 8 | 327 | 1.6 | 3.2 | 0.00 | 0.00 | 0.00 | 79 | 1012.2 |
| 20260508120600 | 8 | 339 | 0.0 | 1.6 | 0.00 | 0.00 | 0.00 | 80 | 1012.1 |
| 20260508120058 | 8 | 332 | 0.0 | 0.0 | 0.00 | 0.00 | 0.00 | 80 | 1012.2 |
| 20260508115555 | 8 | 335 | 0.0 | 1.6 | 0.00 | 0.00 | 0.00 | 80 | 1012.1 |
| 20260508115051 | 8 | 342 | 0.0 | 3.2 | 0.00 | 0.00 | 0.00 | 79 | 1012.3 |
| 20260508114549 | 8 | 316 | 0.0 | 1.6 | 0.00 | 0.00 | 0.00 | 80 | 1012.1 |
| 20260508114045 | 8 | 340 | 0.0 | 3.2 | 0.00 | 0.00 | 0.00 | 80 | 1012.1 |
| 20260508113542 | 7 | 358 | 0.0 | 1.6 | 0.00 | 0.00 | 0.00 | 80 | 1012.1 |
| 20260508113041 | 7 | 342 | 0.0 | 1.6 | 0.00 | 0.00 | 0.00 | 80 | 1011.9 |
| 20260508112536 | 7 | 323 | 0.0 | 1.6 | 0.00 | 0.00 | 0.00 | 80 | 1011.8 |
| 20260508112033 | 7 | 339 | 0.0 | 1.6 | 0.00 | 0.00 | 0.00 | 81 | 1011.7 |
| 20260508111530 | 7 | 338 | 0.0 | 1.6 | 0.00 | 0.00 | 0.00 | 83 | 1011.8 |
| 20260508111027 | 7 | 338 | 0.0 | 0.0 | 0.00 | 0.00 | 0.00 | 82 | 1011.7 |
| 20260508110525 | 6 | 341 | 0.0 | 0.0 | 0.00 | 0.00 | 0.00 | 83 | 1011.8 |
| 20260508110021 | 6 | 343 | 0.0 | 0.0 | 0.00 | 0.00 | 0.00 | 85 | 1011.7 |
| 20260508105516 | 6 | 344 | 0.0 | 0.0 | 0.00 | 0.00 | 0.00 | 86 | 1011.8 |
| 20260508105014 | 5 | 342 | 0.0 | 0.0 | 0.00 | 0.00 | 0.00 | 85 | 1011.9 |
| 20260508104512 | 5 | 344 | 0.0 | 0.0 | 0.00 | 0.00 | 0.00 | 87 | 1011.6 |
| 20260508104007 | 5 | 343 | 0.0 | 0.0 | 0.00 | 0.00 | 0.00 | 87 | 1011.7 |
| 20260508103504 | 5 | 345 | 0.0 | 0.0 | 0.00 | 0.00 | 0.00 | 86 | 1011.6 |
| 20260508103002 | 5 | 343 | 0.0 | 0.0 | 0.00 | 0.00 | 0.00 | 86 | 1011.6 |
| 20260508102500 | 5 | 344 | 0.0 | 0.0 | 0.00 | 0.00 | 0.00 | 86 | 1011.6 |
| 20260508101956 | 5 | 342 | 0.0 | 0.0 | 0.00 | 0.00 | 0.00 | 86 | 1011.4 |
| 20260508101454 | 5 | 345 | 0.0 | 0.0 | 0.00 | 0.00 | 0.00 | 86 | 1011.3 |
| 20260508100951 | 5 | 354 | 0.0 | 0.0 | 0.00 | 0.00 | 0.00 | 85 | 1011.6 |
| 20260508100450 | 5 | 345 | 0.0 | 0.0 | 0.00 | 0.00 | 0.00 | 86 | 1011.4 |
| 20260508095945 | 5 | 345 | 0.0 | 0.0 | 0.00 | 0.00 | 0.00 | 85 | 1011.2 |
| 20260508095443 | 5 | 345 | 0.0 | 0.0 | 0.00 | 0.00 | 0.00 | 85 | 1011.6 |
| 20260508094940 | 5 | 343 | 0.0 | 0.0 | 0.00 | 0.00 | 0.00 | 85 | 1011.3 |
| 20260508094437 | 5 | 346 | 0.0 | 0.0 | 0.00 | 0.00 | 0.00 | 85 | 1011.4 |
| 20260508093933 | 5 | 343 | 0.0 | 0.0 | 0.00 | 0.00 | 0.00 | 84 | 1011.3 |
| 20260508093431 | 5 | 338 | 0.0 | 0.0 | 0.00 | 0.00 | 0.00 | 85 | 1011.4 |
| 20260508092928 | 5 | 344 | 0.0 | 0.0 | 0.00 | 0.00 | 0.00 | 85 | 1011.6 |
| 20260508092426 | 5 | 345 | 0.0 | 0.0 | 0.00 | 0.00 | 0.00 | 85 | 1011.4 |
| 20260508091925 | 5 | 344 | 0.0 | 0.0 | 0.00 | 0.00 | 0.00 | 84 | 1011.5 |
| 20260508091421 | 5 | 344 | 0.0 | 0.0 | 0.00 | 0.00 | 0.00 | 84 | 1011.6 |
| 20260508090918 | 5 | 341 | 0.0 | 0.0 | 0.00 | 0.00 | 0.00 | 85 | 1011.5 |
| 20260508090417 | 5 | 344 | 0.0 | 0.0 | 0.00 | 0.00 | 0.00 | 85 | 1011.5 |
| 20260508085912 | 5 | 344 | 0.0 | 0.0 | 0.00 | 0.00 | 0.00 | 85 | 1011.5 |
| 20260508085409 | 5 | 344 | 0.0 | 0.0 | 0.00 | 0.00 | 0.00 | 85 | 1011.5 |
| 20260508084905 | 5 | 344 | 0.0 | 0.0 | 0.00 | 0.00 | 0.00 | 85 | 1011.6 |
| 20260508084402 | 6 | 345 | 0.0 | 0.0 | 0.00 | 0.00 | 0.00 | 84 | 1011.7 |
| 20260508083900 | 6 | 344 | 0.0 | 0.0 | 0.00 | 0.00 | 0.00 | 83 | 1011.7 |
| 20260508083358 | 6 | 343 | 0.0 | 0.0 | 0.00 | 0.00 | 0.00 | 83 | 1011.6 |
| 20260508082856 | 6 | 344 | 0.0 | 0.0 | 0.00 | 0.00 | 0.00 | 83 | 1011.5 |
| 20260508082355 | 6 | 343 | 0.0 | 0.0 | 0.00 | 0.00 | 0.00 | 83 | 1011.7 |
| 20260508081852 | 6 | 344 | 0.0 | 0.0 | 0.00 | 0.00 | 0.00 | 82 | 1011.6 |
| 20260508081348 | 6 | 342 | 0.0 | 0.0 | 0.00 | 0.00 | 0.00 | 82 | 1011.4 |
| 20260508080846 | 6 | 343 | 0.0 | 0.0 | 0.00 | 0.00 | 0.00 | 82 | 1011.6 |
| 20260508080343 | 6 | 343 | 0.0 | 0.0 | 0.00 | 0.00 | 0.00 | 82 | 1011.4 |
| 20260508075840 | 6 | 342 | 0.0 | 0.0 | 0.00 | 0.00 | 0.00 | 81 | 1011.6 |
| 20260508075337 | 6 | 337 | 0.0 | 1.6 | 0.00 | 0.00 | 0.00 | 81 | 1011.6 |
| 20260508074835 | 6 | 342 | 0.0 | 0.0 | 0.00 | 0.00 | 0.00 | 82 | 1011.5 |
| 20260508074331 | 6 | 344 | 0.0 | 0.0 | 0.00 | 0.00 | 0.00 | 81 | 1011.6 |
| 20260508073828 | 6 | 290 | 1.6 | 1.6 | 0.00 | 0.00 | 0.00 | 80 | 1011.6 |
| 20260508073326 | 6 | 343 | 0.0 | 0.0 | 0.00 | 0.00 | 0.00 | 82 | 1011.7 |
| 20260508072822 | 7 | 343 | 0.0 | 0.0 | 0.00 | 0.00 | 0.00 | 83 | 1011.5 |
| 20260508072319 | 7 | 337 | 1.6 | 1.6 | 0.00 | 0.00 | 0.00 | 81 | 1011.5 |
| 20260508071817 | 7 | 343 | 0.0 | 0.0 | 0.00 | 0.00 | 0.00 | 80 | 1011.7 |
| 20260508071315 | 7 | 343 | 0.0 | 0.0 | 0.00 | 0.00 | 0.00 | 79 | 1011.8 |
| 20260508070812 | 7 | 344 | 0.0 | 0.0 | 0.00 | 0.00 | 0.00 | 80 | 1011.7 |
| 20260508070311 | 7 | 344 | 0.0 | 0.0 | 0.00 | 0.00 | 0.00 | 80 | 1012.0 |
| 20260508065807 | 7 | 346 | 0.0 | 0.0 | 0.00 | 0.00 | 0.00 | 80 | 1012.1 |
| 20260508065307 | 7 | 340 | 0.0 | 0.0 | 0.00 | 0.00 | 0.00 | 80 | 1011.9 |
| 20260508064803 | 7 | 347 | 0.0 | 0.0 | 0.00 | 0.00 | 0.00 | 81 | 1012.1 |
| 20260508064300 | 8 | 344 | 0.0 | 0.0 | 0.00 | 0.00 | 0.00 | 82 | 1012.0 |
| 20260508063758 | 8 | 349 | 0.0 | 0.0 | 0.00 | 0.00 | 0.00 | 81 | 1011.8 |
| 20260508063256 | 8 | 309 | 1.6 | 3.2 | 0.00 | 0.00 | 0.00 | 82 | 1011.9 |
| 20260508062753 | 8 | 336 | 0.0 | 1.6 | 0.00 | 0.00 | 0.00 | 82 | 1012.2 |
| 20260508062250 | 8 | 344 | 0.0 | 0.0 | 0.00 | 0.00 | 0.00 | 80 | 1012.1 |
| 20260508061747 | 8 | 357 | 0.0 | 0.0 | 0.00 | 0.00 | 0.00 | 80 | 1012.3 |
| 20260508061244 | 8 | 337 | 0.0 | 0.0 | 0.00 | 0.00 | 0.00 | 78 | 1012.5 |
| 20260508060741 | 8 | 316 | 0.0 | 1.6 | 0.00 | 0.00 | 0.00 | 77 | 1012.4 |
| 20260508060239 | 8 | 342 | 0.0 | 1.6 | 0.00 | 0.00 | 0.00 | 79 | 1012.7 |
| 20260508055734 | 8 | 345 | 0.0 | 3.2 | 0.00 | 0.00 | 0.00 | 79 | 1012.8 |
| 20260508055231 | 8 | 348 | 0.0 | 1.6 | 0.00 | 0.00 | 0.00 | 82 | 1012.7 |
| 20260508054727 | 8 | 3 | 1.6 | 3.2 | 0.00 | 0.00 | 0.00 | 79 | 1012.6 |
| 20260508054226 | 8 | 359 | 1.6 | 1.6 | 0.00 | 0.00 | 0.00 | 79 | 1012.6 |
| 20260508053722 | 8 | 345 | 1.6 | 3.2 | 0.00 | 0.00 | 0.00 | 77 | 1012.5 |
| 20260508053220 | 8 | 345 | 0.0 | 1.6 | 0.00 | 0.00 | 0.00 | 78 | 1012.2 |
| 20260508052716 | 8 | 348 | 0.0 | 0.0 | 0.00 | 0.00 | 0.00 | 81 | 1012.3 |
| 20260508052213 | 8 | 345 | 0.0 | 0.0 | 0.00 | 0.00 | 0.00 | 79 | 1012.1 |
| 20260508051710 | 8 | 339 | 0.0 | 1.6 | 0.00 | 0.00 | 0.00 | 79 | 1012.0 |
| 20260508051205 | 7 | 344 | 0.0 | 0.0 | 0.00 | 0.00 | 0.00 | 79 | 1012.2 |
| 20260508050702 | 7 | 344 | 0.0 | 0.0 | 0.00 | 0.00 | 0.00 | 79 | 1012.0 |
| 20260508050200 | 7 | 345 | 0.0 | 0.0 | 0.00 | 0.00 | 0.00 | 81 | 1011.9 |
| 20260508045654 | 7 | 344 | 0.0 | 0.0 | 0.00 | 0.00 | 0.00 | 83 | 1011.9 |
| 20260508045153 | 7 | 344 | 0.0 | 0.0 | 0.00 | 0.00 | 0.00 | 85 | 1011.8 |
| 20260508044650 | 7 | 344 | 0.0 | 0.0 | 0.00 | 0.00 | 0.00 | 84 | 1012.1 |
| 20260508044146 | 7 | 344 | 0.0 | 0.0 | 0.00 | 0.00 | 0.00 | 85 | 1012.1 |
| 20260508043642 | 8 | 332 | 0.0 | 1.6 | 0.00 | 0.00 | 0.00 | 85 | 1012.0 |
| 20260508043140 | 8 | 344 | 0.0 | 0.0 | 0.00 | 0.00 | 0.00 | 81 | 1012.2 |
| 20260508042637 | 8 | 345 | 0.0 | 0.0 | 0.00 | 0.00 | 0.00 | 79 | 1012.2 |
| 20260508042134 | 7 | 344 | 0.0 | 0.0 | 0.00 | 0.00 | 0.00 | 78 | 1012.0 |
| 20260508041630 | 8 | 344 | 0.0 | 0.0 | 0.00 | 0.00 | 0.00 | 81 | 1012.2 |
| 20260508041127 | 8 | 345 | 0.0 | 0.0 | 0.00 | 0.00 | 0.00 | 79 | 1012.1 |
| 20260508040623 | 8 | 344 | 0.0 | 1.6 | 0.00 | 0.00 | 0.00 | 79 | 1012.1 |
| 20260508040121 | 8 | 344 | 0.0 | 0.0 | 0.00 | 0.00 | 0.00 | 80 | 1012.2 |
| 20260508035618 | 8 | 343 | 0.0 | 0.0 | 0.00 | 0.00 | 0.00 | 81 | 1012.4 |
| 20260508035116 | 8 | 344 | 0.0 | 0.0 | 0.00 | 0.00 | 0.00 | 82 | 1012.4 |
| 20260508034612 | 7 | 345 | 0.0 | 0.0 | 0.00 | 0.00 | 0.00 | 78 | 1012.3 |
| 20260508034109 | 8 | 346 | 0.0 | 0.0 | 0.00 | 0.00 | 0.00 | 79 | 1012.2 |
| 20260508033607 | 8 | 345 | 0.0 | 0.0 | 0.00 | 0.00 | 0.00 | 74 | 1012.3 |
| 20260508033105 | 8 | 345 | 0.0 | 0.0 | 0.00 | 0.00 | 0.00 | 74 | 1012.2 |
| 20260508032601 | 8 | 345 | 0.0 | 0.0 | 0.00 | 0.00 | 0.00 | 74 | 1012.2 |
| 20260508032059 | 8 | 345 | 0.0 | 0.0 | 0.00 | 0.00 | 0.00 | 74 | 1012.3 |
| 20260508031556 | 8 | 335 | 0.0 | 1.6 | 0.00 | 0.00 | 0.00 | 73 | 1012.2 |
| 20260508031051 | 8 | 335 | 0.0 | 0.0 | 0.00 | 0.00 | 0.00 | 72 | 1012.2 |
| 20260508030548 | 8 | 340 | 1.6 | 1.6 | 0.00 | 0.00 | 0.00 | 78 | 1012.2 |
| 20260508030047 | 8 | 348 | 0.0 | 0.0 | 0.00 | 0.00 | 0.00 | 79 | 1012.3 |
| 20260508025542 | 8 | 346 | 0.0 | 0.0 | 0.00 | 0.00 | 0.00 | 78 | 1012.4 |
| 20260508025039 | 8 | 346 | 0.0 | 0.0 | 0.00 | 0.00 | 0.00 | 76 | 1012.3 |
| 20260508024535 | 7 | 345 | 0.0 | 0.0 | 0.00 | 0.00 | 0.00 | 75 | 1012.1 |
| 20260508024032 | 7 | 345 | 0.0 | 0.0 | 0.00 | 0.00 | 0.00 | 77 | 1012.2 |
| 20260508023529 | 7 | 345 | 0.0 | 0.0 | 0.00 | 0.00 | 0.00 | 75 | 1012.2 |
| 20260508023026 | 7 | 345 | 0.0 | 0.0 | 0.00 | 0.00 | 0.00 | 74 | 1012.2 |
| 20260508022522 | 7 | 345 | 0.0 | 0.0 | 0.00 | 0.00 | 0.00 | 75 | 1012.1 |
| 20260508022019 | 7 | 345 | 0.0 | 0.0 | 0.00 | 0.00 | 0.00 | 75 | 1012.1 |
| 20260508021515 | 7 | 342 | 0.0 | 0.0 | 0.00 | 0.00 | 0.00 | 73 | 1012.2 |
| 20260508021011 | 8 | 342 | 0.0 | 0.0 | 0.00 | 0.00 | 0.00 | 72 | 1012.0 |
| 20260508020509 | 8 | 343 | 0.0 | 0.0 | 0.00 | 0.00 | 0.00 | 71 | 1011.9 |
| 20260508020006 | 8 | 343 | 0.0 | 0.0 | 0.00 | 0.00 | 0.00 | 69 | 1012.0 |
| 20260508015504 | 8 | 343 | 0.0 | 0.0 | 0.00 | 0.00 | 0.00 | 70 | 1012.1 |
| 20260508015000 | 8 | 345 | 0.0 | 0.0 | 0.00 | 0.00 | 0.00 | 68 | 1012.0 |
| 20260508014457 | 8 | 345 | 0.0 | 0.0 | 0.00 | 0.00 | 0.00 | 68 | 1012.2 |
| 20260508013953 | 8 | 345 | 0.0 | 0.0 | 0.00 | 0.00 | 0.00 | 69 | 1012.1 |
| 20260508013449 | 8 | 342 | 0.0 | 0.0 | 0.00 | 0.00 | 0.00 | 67 | 1012.0 |
| 20260508012947 | 8 | 345 | 0.0 | 0.0 | 0.00 | 0.00 | 0.00 | 67 | 1012.1 |
| 20260508012443 | 8 | 345 | 0.0 | 0.0 | 0.00 | 0.00 | 0.00 | 66 | 1012.1 |
| 20260508011941 | 8 | 345 | 0.0 | 0.0 | 0.00 | 0.00 | 0.00 | 67 | 1012.2 |
| 20260508011438 | 8 | 342 | 0.0 | 0.0 | 0.00 | 0.00 | 0.00 | 68 | 1012.1 |
| 20260508010936 | 8 | 342 | 0.0 | 0.0 | 0.00 | 0.00 | 0.00 | 67 | 1011.9 |
| 20260508010433 | 9 | 342 | 0.0 | 0.0 | 0.00 | 0.00 | 0.00 | 67 | 1011.9 |
| 20260508005930 | 9 | 345 | 0.0 | 0.0 | 0.00 | 0.00 | 0.00 | 67 | 1011.8 |
| 20260508005427 | 9 | 345 | 0.0 | 0.0 | 0.00 | 0.00 | 0.00 | 68 | 1012.0 |
| 20260508004923 | 10 | 343 | 0.0 | 0.0 | 0.00 | 0.00 | 0.00 | 66 | 1012.0 |
| 20260508004419 | 10 | 343 | 0.0 | 0.0 | 0.00 | 0.00 | 0.00 | 64 | 1011.8 |
| 20260508003916 | 10 | 345 | 0.0 | 0.0 | 0.00 | 0.00 | 0.00 | 63 | 1011.8 |
| 20260508003413 | 10 | 345 | 0.0 | 0.0 | 0.00 | 0.00 | 0.00 | 63 | 1012.0 |
| 20260508002911 | 10 | 345 | 0.0 | 0.0 | 0.00 | 0.00 | 0.00 | 60 | 1012.0 |
| 20260508002407 | 11 | 342 | 0.0 | 0.0 | 0.00 | 0.00 | 0.00 | 60 | 1011.9 |
| 20260508001903 | 11 | 339 | 0.0 | 0.0 | 0.00 | 0.00 | 0.00 | 57 | 1011.8 |
| 20260508001359 | 11 | 337 | 0.0 | 1.6 | 0.00 | 0.00 | 0.00 | 55 | 1011.9 |
| 20260508000856 | 11 | 338 | 0.0 | 0.0 | 0.00 | 0.00 | 0.00 | 59 | 1011.7 |
| 20260508000352 | 11 | 345 | 0.0 | 0.0 | 0.00 | 0.00 | 0.00 | 56 | 1011.8 |
| 20260507235848 | 12 | 339 | 0.0 | 0.0 | 0.00 | 0.00 | 0.00 | 55 | 1011.7 |
| 20260507235346 | 12 | 343 | 0.0 | 0.0 | 0.00 | 0.00 | 0.00 | 57 | 1011.5 |
| 20260507234843 | 12 | 339 | 0.0 | 0.0 | 0.00 | 0.00 | 0.00 | 55 | 1011.4 |
| 20260507234339 | 13 | 339 | 0.0 | 1.6 | 0.00 | 0.00 | 0.00 | 54 | 1011.3 |
| 20260507233836 | 13 | 339 | 0.0 | 0.0 | 0.00 | 0.00 | 0.00 | 50 | 1011.4 |
| 20260507233334 | 13 | 338 | 0.0 | 0.0 | 0.00 | 0.00 | 0.00 | 52 | 1011.3 |
| 20260507232832 | 13 | 350 | 0.0 | 1.6 | 0.00 | 0.00 | 0.00 | 51 | 1011.4 |
| 20260507232328 | 13 | 335 | 0.0 | 1.6 | 0.00 | 0.00 | 0.00 | 51 | 1011.3 |
| 20260507231825 | 13 | 344 | 3.2 | 4.8 | 0.00 | 0.00 | 0.00 | 47 | 1011.4 |
| 20260507231322 | 13 | 336 | 0.0 | 3.2 | 0.00 | 0.00 | 0.00 | 49 | 1011.6 |
| 20260507230818 | 13 | 338 | 1.6 | 4.8 | 0.00 | 0.00 | 0.00 | 51 | 1011.5 |
| 20260507230315 | 14 | 328 | 0.0 | 1.6 | 0.00 | 0.00 | 0.00 | 48 | 1011.5 |
| 20260507225810 | 13 | 323 | 1.6 | 3.2 | 0.00 | 0.00 | 0.00 | 46 | 1011.5 |
| 20260507225306 | 13 | 338 | 3.2 | 3.2 | 0.00 | 0.00 | 0.00 | 49 | 1011.4 |
| 20260507224802 | 13 | 334 | 0.0 | 4.8 | 0.00 | 0.00 | 0.00 | 48 | 1011.5 |
| 20260507224259 | 13 | 317 | 1.6 | 8.0 | 0.00 | 0.00 | 0.00 | 51 | 1011.8 |
| 20260507223755 | 14 | 269 | 3.2 | 3.2 | 0.00 | 0.00 | 0.00 | 48 | 1011.6 |
| 20260507223251 | 14 | 329 | 1.6 | 8.0 | 0.00 | 0.00 | 0.00 | 46 | 1011.8 |
| 20260507222749 | 13 | 344 | 0.0 | 8.0 | 0.00 | 0.00 | 0.00 | 51 | 1011.7 |
| 20260507222244 | 13 | 298 | 3.2 | 8.0 | 0.00 | 0.00 | 0.00 | 46 | 1011.8 |
| 20260507221742 | 13 | 340 | 1.6 | 3.2 | 0.00 | 0.00 | 0.00 | 49 | 1011.9 |
| 20260507221238 | 13 | 288 | 3.2 | 4.8 | 0.00 | 0.00 | 0.00 | 46 | 1012.0 |
| 20260507220734 | 13 | 333 | 4.8 | 4.8 | 0.00 | 0.00 | 0.00 | 48 | 1011.9 |
| 20260507220233 | 13 | 327 | 4.8 | 8.0 | 0.00 | 0.00 | 0.00 | 48 | 1011.9 |
| 20260507215728 | 13 | 314 | 1.6 | 8.0 | 0.00 | 0.00 | 0.00 | 48 | 1011.9 |
| 20260507215226 | 13 | 303 | 1.6 | 3.2 | 0.00 | 0.00 | 0.00 | 48 | 1011.8 |
| 20260507214723 | 13 | 282 | 3.2 | 4.8 | 0.00 | 0.00 | 0.00 | 49 | 1011.7 |
| 20260507214221 | 13 | 345 | 0.0 | 1.6 | 0.00 | 0.00 | 0.00 | 51 | 1011.8 |
| 20260507213716 | 12 | 327 | 4.8 | 4.8 | 0.00 | 0.00 | 0.00 | 50 | 1011.7 |
| 20260507213213 | 12 | 1 | 1.6 | 3.2 | 0.00 | 0.00 | 0.00 | 52 | 1012.0 |
| 20260507212709 | 13 | 350 | 0.0 | 1.6 | 0.00 | 0.00 | 0.00 | 52 | 1011.8 |
| 20260507212206 | 13 | 336 | 3.2 | 8.0 | 0.00 | 0.00 | 0.00 | 50 | 1011.7 |
| 20260507211703 | 14 | 339 | 1.6 | 9.7 | 0.00 | 0.00 | 0.00 | 48 | 1011.6 |
| 20260507211158 | 15 | 294 | 1.6 | 3.2 | 0.00 | 0.00 | 0.00 | 46 | 1011.5 |
| 20260507210656 | 14 | 343 | 1.6 | 9.7 | 0.00 | 0.00 | 0.00 | 48 | 1011.7 |
| 20260507210152 | 13 | 294 | 1.6 | 4.8 | 0.00 | 0.00 | 0.00 | 48 | 1011.3 |
| 20260507205649 | 12 | 280 | 6.4 | 12.9 | 0.00 | 0.00 | 0.00 | 50 | 1011.6 |
| 20260507205146 | 13 | 339 | 3.2 | 4.8 | 0.00 | 0.00 | 0.00 | 51 | 1011.4 |
| 20260507204642 | 14 | 339 | 0.0 | 3.2 | 0.00 | 0.00 | 0.00 | 51 | 1011.5 |
| 20260507204140 | 13 | 327 | 0.0 | 3.2 | 0.00 | 0.00 | 0.00 | 51 | 1011.6 |
| 20260507203638 | 14 | 348 | 4.8 | 8.0 | 0.00 | 0.00 | 0.00 | 48 | 1011.5 |
| 20260507203135 | 13 | 334 | 0.0 | 4.8 | 0.00 | 0.00 | 0.00 | 55 | 1011.6 |
| 20260507202630 | 13 | 21 | 3.2 | 4.8 | 0.00 | 0.00 | 0.00 | 50 | 1011.5 |
| 20260507202127 | 13 | 328 | 4.8 | 8.0 | 0.00 | 0.00 | 0.00 | 49 | 1011.4 |
| 20260507201622 | 13 | 352 | 4.8 | 11.3 | 0.00 | 0.00 | 0.00 | 50 | 1011.5 |
| 20260507201119 | 14 | 86 | 1.6 | 4.8 | 0.00 | 0.00 | 0.00 | 50 | 1011.3 |
| 20260507200615 | 14 | 7 | 3.2 | 12.9 | 0.00 | 0.00 | 0.00 | 53 | 1011.6 |
| 20260507200111 | 14 | 328 | 1.6 | 12.9 | 0.00 | 0.00 | 0.00 | 51 | 1011.9 |
| 20260507195609 | 14 | 324 | 1.6 | 9.7 | 0.00 | 0.00 | 0.00 | 53 | 1011.6 |
| 20260507195106 | 13 | 329 | 1.6 | 4.8 | 0.00 | 0.00 | 0.00 | 49 | 1011.7 |
| 20260507194602 | 14 | 287 | 4.8 | 9.7 | 0.00 | 0.00 | 0.00 | 53 | 1011.7 |
| 20260507194057 | 13 | 7 | 6.4 | 11.3 | 0.00 | 0.00 | 0.00 | 52 | 1011.5 |
| 20260507193555 | 13 | 344 | 4.8 | 14.5 | 0.00 | 0.00 | 0.00 | 54 | 1011.6 |
| 20260507193052 | 12 | 297 | 3.2 | 4.8 | 0.00 | 0.00 | 0.00 | 54 | 1011.9 |
| 20260507192548 | 13 | 2 | 3.2 | 9.7 | 0.00 | 0.00 | 0.00 | 55 | 1011.9 |
| 20260507192045 | 13 | 332 | 1.6 | 8.0 | 0.00 | 0.00 | 0.00 | 52 | 1011.7 |
| 20260507191540 | 13 | 80 | 6.4 | 9.7 | 0.00 | 0.00 | 0.00 | 53 | 1011.7 |
| 20260507191038 | 14 | 344 | 1.6 | 9.7 | 0.00 | 0.00 | 0.00 | 52 | 1011.6 |
| 20260507190535 | 13 | 283 | 4.8 | 8.0 | 0.00 | 0.00 | 0.00 | 55 | 1011.9 |
| 20260507190034 | 13 | 298 | 4.8 | 4.8 | 0.00 | 0.00 | 0.00 | 53 | 1011.9 |